Flag for Australia Weather past 2 weeks in Melbourne, Victoria, Australia

Now
43 °F

Fog.


Feels Like: 43 °F
Forecast: 34 / 54 °F
Wind: No wind

Location: Melbourne Airport

Current Time: Jul 23, 2014 at 7:41:50 AM

Latest Report: Jul 23, 2014 at 2:30 AM


Visibility: 0 mi

Pressure: 30.24 "Hg

Humidity: 100%

Dew point: 43 °F

Location of MelbourneLocation

Historic Weather in Melbourne — Graph

°F

Melbourne temperature yesterday

Maximum temperature yesterday: 48 °F (at 2:30 PM)
Minimum temperature yesterday: 37 °F (at 12:30 AM)
Average temperature yesterday: 42 °F

Past Weeks' High & Low Weather Summary

 TemperatureHumidityPressure
High57 °F (Jul 11, 3:00 PM)100% (Jul 14, 5:00 AM)30.51 "Hg (Jul 14, 5:00 AM)
Low37 °F (Jul 21, 10:00 PM)43% (Jul 17, 4:00 PM)29.39 "Hg (Jul 9, 5:30 AM)
Average47 °F81%30.09 "Hg
* Reported Jul 8 2:00 AM — Jul 23 2:30 AM, Melbourne, Weather by CustomWeather, © 2014

Note: Actual official high and low records may vary slightly from our data, if they occured in-between our weather recording intervals... More about our weather records

Advertising

Melbourne weather history for previous 24 hours

 ConditionsComfort  
Time TempWeatherWind HumidityBarometerVisibility
2:30 AM
Jul 23
43 °FFog.No wind100%30.24 "Hg1 mi
2:00 AM43 °FSnow. Overcast.1 mph100%30.24 "Hg1 mi
1:48 AM43 °FFog.5 mph100%30.24 "Hg1 mi
1:30 AM43 °FSnow. Overcast.5 mph100%30.24 "Hg1 mi
1:00 AM43 °FLow clouds.7 mph100%30.24 "Hg2 mi
12:30 AM43 °FFog.7 mph100%30.24 "Hg2 mi
12:00 AM43 °FFog.8 mph100%30.24 "Hg2 mi
11:30 PM
Jul 22
43 °FFog.7 mph100%30.24 "Hg2 mi
11:00 PM41 °FFog.7 mph100%30.27 "Hg2 mi
10:30 PM41 °FFog.6 mph100%30.27 "Hg2 mi
10:00 PM41 °FSnow. Fog.6 mph100%30.27 "Hg2 mi
9:30 PM39 °FFog.9 mph100%30.27 "Hg1 mi
9:00 PM39 °FFog.9 mph100%30.27 "Hg0 mi
8:30 PM39 °FSnow. Overcast.8 mph100%30.27 "Hg0 mi
8:00 PM39 °FFog.7 mph100%30.24 "Hg0 mi
7:30 PM39 °FFog.7 mph100%30.24 "Hg0 mi
7:00 PM39 °FFog.7 mph100%30.24 "Hg2 mi
6:30 PM41 °FClear.7 mph93%30.24 "Hg4 mi
6:00 PM43 °FClear.8 mph87%30.24 "Hg4 mi
5:30 PM43 °FClear.6 mph93%30.24 "Hg5 mi
5:00 PM45 °FClear.6 mph87%30.24 "Hg6 mi
4:30 PM46 °FClear.7 mph87%30.24 "Hg6 mi
4:00 PM46 °FClear.5 mph87%30.24 "Hg6 mi
3:00 PM48 °FPassing clouds.6 mph76%30.24 "Hg6 mi
2:30 PM48 °FScattered clouds.3 mph76%30.24 "Hg6 mi
2:00 PM46 °FPartly sunny.6 mph87%30.27 "Hg5 mi
1:30 PM46 °FPartly sunny.5 mph87%30.27 "Hg4 mi
1:00 PM45 °FPartly sunny.2 mph87%30.27 "Hg4 mi
12:30 PM43 °FFog.No wind93%30.30 "Hg3 mi
12:00 PM43 °FFog.No wind93%30.30 "Hg3 mi
11:30 AM43 °FFog.No wind100%30.30 "Hg1 mi
11:00 AM43 °FFog.No wind93%30.33 "Hg1 mi
10:30 AM43 °FFog.6 mph100%30.33 "Hg1 mi
9:30 AM41 °FFog.5 mph100%30.33 "Hg0 mi
9:00 AM41 °FFog.6 mph100%30.30 "Hg0 mi
8:30 AM41 °FFog.5 mph100%30.30 "Hg0 mi
8:00 AM41 °FFog.3 mph100%30.30 "Hg0 mi
7:00 AM41 °FFog.6 mph100%30.27 "Hg0 mi
Weather by CustomWeather, © 2014

See weather overviewHow to use our weather pages